Time,TemperatureF,DewpointF,PressureIn,WindDirection,WindDirectionDegrees,WindSpeedMPH,WindSpeedGustMPH,Humidity,HourlyPrecipIn,Conditions,Clouds,dailyrainin,SoftwareType,DateUTC
2013-01-12 00:00:00,66.2,63.8,30.14,South,181,2.0,10.0,92,0.00,,SKC,0.00,VWS V14.01,2013-01-12 05:00:00,
2013-01-12 00:01:00,66.2,63.8,30.14,SSW,202,1.0,10.0,92,0.00,,SKC,0.00,VWS V14.01,2013-01-12 05:01:00,
2013-01-12 00:06:00,66.2,63.8,30.14,SW,214,8.0,8.0,92,0.00,,SKC,0.00,VWS V14.01,2013-01-12 05:06:00,
2013-01-12 00:11:00,66.3,63.9,30.13,SSW,199,3.0,9.0,92,0.00,,SKC,0.00,VWS V14.01,2013-01-12 05:11:00,
2013-01-12 00:16:00,66.3,63.9,30.13,SSW,204,1.0,9.0,92,0.00,,SKC,0.00,VWS V14.01,2013-01-12 05:16:00,
2013-01-12 00:21:00,66.3,63.9,30.13,South,186,3.0,9.0,92,0.00,,SKC,0.00,VWS V14.01,2013-01-12 05:21:00,
2013-01-12 00:26:00,66.1,63.7,30.13,SW,218,1.0,9.0,92,0.00,,SKC,0.00,VWS V14.01,2013-01-12 05:26:00,
2013-01-12 00:31:00,66.0,63.6,30.13,SSW,194,0.0,9.0,92,0.00,,SKC,0.00,VWS V14.01,2013-01-12 05:31:00,
2013-01-12 00:36:00,65.8,63.4,30.13,South,186,1.0,9.0,92,0.00,,SKC,0.00,VWS V14.01,2013-01-12 05:36:00,
2013-01-12 00:41:00,65.7,63.3,30.13,South,186,0.0,9.0,92,0.00,,SKC,0.00,VWS V14.01,2013-01-12 05:41:00,
2013-01-12 00:46:00,65.6,63.2,30.13,SSW,192,1.0,9.0,92,0.00,,SKC,0.00,VWS V14.01,2013-01-12 05:46:00,
2013-01-12 00:51:00,65.5,63.4,30.13,SSW,192,0.0,9.0,93,0.00,,SKC,0.00,VWS V14.01,2013-01-12 05:51:00,
2013-01-12 00:56:00,65.4,63.3,30.13,SSW,195,1.0,9.0,93,0.00,,SKC,0.00,VWS V14.01,2013-01-12 05:56:00,
2013-01-12 01:00:00,63.4,62.0,30.14,South,190,0.0,4.0,95,0.00,,SKC,0.00,VWS V14.01,2013-01-12 06:00:00,
2013-01-12 01:01:00,65.3,63.2,30.13,SW,218,0.0,9.0,93,0.00,,SKC,0.00,VWS V14.01,2013-01-12 06:01:00,
2013-01-12 01:06:00,65.1,63.0,30.13,SW,218,0.0,1.0,93,0.00,,SKC,0.00,VWS V14.01,2013-01-12 06:06:00,
2013-01-12 01:11:00,64.9,62.8,30.13,SW,218,0.0,3.0,93,0.00,,SKC,0.00,VWS V14.01,2013-01-12 06:11:00,
2013-01-12 01:16:00,64.8,62.7,30.13,South,171,0.0,3.0,93,0.00,,SKC,0.00,VWS V14.01,2013-01-12 06:16:00,
2013-01-12 01:21:00,64.6,62.8,30.13,South,171,0.0,3.0,94,0.00,,SKC,0.00,VWS V14.01,2013-01-12 06:21:00,
2013-01-12 01:26:00,64.4,62.6,30.13,South,171,0.0,3.0,94,0.00,,SKC,0.00,VWS V14.01,2013-01-12 06:26:00,
2013-01-12 01:31:00,64.2,62.4,30.13,South,171,0.0,3.0,94,0.00,,SKC,0.00,VWS V14.01,2013-01-12 06:31:00,
2013-01-12 01:36:00,64.1,62.3,30.13,South,171,0.0,3.0,94,0.00,,SKC,0.00,VWS V14.01,2013-01-12 06:36:00,
2013-01-12 01:41:00,64.0,62.2,30.14,SSW,202,0.0,3.0,94,0.00,,SKC,0.00,VWS V14.01,2013-01-12 06:41:00,
2013-01-12 01:46:00,63.7,62.2,30.14,SSW,202,0.0,3.0,95,0.00,,SKC,0.00,VWS V14.01,2013-01-12 06:46:00,
2013-01-12 01:51:00,63.6,62.2,30.14,South,190,0.0,4.0,95,0.00,,SKC,0.00,VWS V14.01,2013-01-12 06:51:00,
2013-01-12 01:56:00,63.5,62.0,30.14,South,190,0.0,4.0,95,0.00,,SKC,0.00,VWS V14.01,2013-01-12 06:56:00,
2013-01-12 02:00:00,62.6,61.7,30.14,South,187,2.0,4.0,97,0.00,,SKC,0.00,VWS V14.01,2013-01-12 07:00:00,
2013-01-12 02:01:00,63.4,62.0,30.14,South,190,0.0,4.0,95,0.00,,SKC,0.00,VWS V14.01,2013-01-12 07:01:00,
2013-01-12 02:06:00,63.4,62.2,30.14,South,190,0.0,4.0,96,0.00,,SKC,0.00,VWS V14.01,2013-01-12 07:06:00,
2013-01-12 02:11:00,63.3,62.1,30.14,South,181,0.0,4.0,96,0.00,,SKC,0.00,VWS V14.01,2013-01-12 07:11:00,
2013-01-12 02:16:00,63.2,62.0,30.14,South,181,0.0,4.0,96,0.00,,SKC,0.00,VWS V14.01,2013-01-12 07:16:00,
2013-01-12 02:21:00,63.2,62.0,30.14,South,182,0.0,4.0,96,0.00,,SKC,0.00,VWS V14.01,2013-01-12 07:21:00,
2013-01-12 02:26:00,63.2,62.0,30.14,South,177,1.0,4.0,96,0.00,,SKC,0.00,VWS V14.01,2013-01-12 07:26:00,
2013-01-12 02:31:00,63.1,61.9,30.14,South,182,0.0,4.0,96,0.00,,SKC,0.00,VWS V14.01,2013-01-12 07:31:00,
2013-01-12 02:36:00,63.0,61.8,30.14,South,182,0.0,4.0,96,0.00,,SKC,0.00,VWS V14.01,2013-01-12 07:36:00,
2013-01-12 02:41:00,63.0,62.1,30.14,SW,218,2.0,4.0,97,0.00,,SKC,0.00,VWS V14.01,2013-01-12 07:41:00,
2013-01-12 02:46:00,62.8,61.9,30.14,SW,218,0.0,4.0,97,0.00,,SKC,0.00,VWS V14.01,2013-01-12 07:46:00,
2013-01-12 02:51:00,62.8,61.9,30.14,SSW,207,1.0,4.0,97,0.00,,SKC,0.00,VWS V14.01,2013-01-12 07:51:00,
2013-01-12 02:56:00,62.7,61.8,30.14,South,187,0.0,4.0,97,0.00,,SKC,0.00,VWS V14.01,2013-01-12 07:56:00,
2013-01-12 03:00:00,62.0,61.4,30.13,SSE,158,0.0,5.0,98,0.00,,SKC,0.00,VWS V14.01,2013-01-12 08:00:00,
2013-01-12 03:01:00,62.6,61.7,30.14,South,187,1.0,4.0,97,0.00,,SKC,0.00,VWS V14.01,2013-01-12 08:01:00,
2013-01-12 03:06:00,62.6,61.7,30.14,South,187,0.0,4.0,97,0.00,,SKC,0.00,VWS V14.01,2013-01-12 08:06:00,
2013-01-12 03:11:00,62.7,61.8,30.14,SSW,200,1.0,5.0,97,0.00,,SKC,0.00,VWS V14.01,2013-01-12 08:11:00,
2013-01-12 03:16:00,62.6,62.6,30.14,South,188,0.0,5.0,100,0.00,,SKC,0.00,VWS V14.01,2013-01-12 08:16:00,
2013-01-12 03:21:00,62.6,61.7,30.14,South,188,1.0,5.0,97,0.00,,SKC,0.00,VWS V14.01,2013-01-12 08:21:00,
2013-01-12 03:26:00,62.5,61.6,30.13,South,188,0.0,5.0,97,0.00,,SKC,0.00,VWS V14.01,2013-01-12 08:26:00,
2013-01-12 03:31:00,62.3,61.7,30.13,South,188,0.0,5.0,98,0.00,,SKC,0.00,VWS V14.01,2013-01-12 08:31:00,
2013-01-12 03:36:00,62.2,61.6,30.13,South,188,0.0,5.0,98,0.00,,SKC,0.00,VWS V14.01,2013-01-12 08:36:00,
2013-01-12 03:41:00,62.2,61.6,30.13,SSE,154,0.0,5.0,98,0.00,,SKC,0.00,VWS V14.01,2013-01-12 08:41:00,
2013-01-12 03:46:00,62.1,61.5,30.13,SSE,154,0.0,5.0,98,0.00,,SKC,0.00,VWS V14.01,2013-01-12 08:46:00,
2013-01-12 03:51:00,62.0,61.4,30.13,SSE,154,0.0,5.0,98,0.00,,SKC,0.00,VWS V14.01,2013-01-12 08:51:00,
2013-01-12 03:56:00,62.0,61.4,30.13,SSE,157,0.0,5.0,98,0.00,,SKC,0.00,VWS V14.01,2013-01-12 08:56:00,
2013-01-12 04:00:00,61.6,61.3,30.12,WSW,240,1.0,4.0,99,0.00,,SKC,0.00,VWS V14.01,2013-01-12 09:00:00,
2013-01-12 04:01:00,62.0,61.4,30.13,SSE,157,0.0,5.0,98,0.00,,SKC,0.00,VWS V14.01,2013-01-12 09:01:00,
2013-01-12 04:06:00,61.9,61.3,30.13,SSE,157,1.0,2.0,98,0.00,,SKC,0.00,VWS V14.01,2013-01-12 09:06:00,
2013-01-12 04:11:00,61.8,61.2,30.13,SSE,158,0.0,3.0,98,0.00,,SKC,0.00,VWS V14.01,2013-01-12 09:11:00,
2013-01-12 04:16:00,61.8,61.2,30.13,SSE,158,2.0,3.0,98,0.00,,SKC,0.00,VWS V14.01,2013-01-12 09:16:00,
2013-01-12 04:20:00,61.7,61.1,30.12,SSW,201,3.0,4.0,98,0.00,,SKC,0.00,VWS V14.01,2013-01-12 09:20:00,
2013-01-12 04:25:00,61.8,61.5,30.12,SSW,201,0.0,4.0,99,0.00,,SKC,0.00,VWS V14.01,2013-01-12 09:25:00,
2013-01-12 04:30:00,61.8,61.5,30.12,SSE,156,3.0,4.0,99,0.00,,SKC,0.00,VWS V14.01,2013-01-12 09:30:00,
2013-01-12 04:35:00,61.7,61.4,30.12,SSE,157,0.0,4.0,99,0.00,,SKC,0.00,VWS V14.01,2013-01-12 09:35:00,
2013-01-12 04:40:00,61.7,61.4,30.12,SSE,157,0.0,4.0,99,0.00,,SKC,0.00,VWS V14.01,2013-01-12 09:40:00,
2013-01-12 04:45:00,61.7,61.4,30.12,WSW,243,0.0,4.0,99,0.00,,SKC,0.00,VWS V14.01,2013-01-12 09:45:00,
2013-01-12 04:50:00,61.7,61.4,30.13,WSW,240,0.0,4.0,99,0.00,,SKC,0.00,VWS V14.01,2013-01-12 09:50:00,
2013-01-12 04:55:00,61.6,61.3,30.13,WSW,240,0.0,4.0,99,0.00,,SKC,0.00,VWS V14.01,2013-01-12 09:55:00,
2013-01-12 05:00:00,61.6,61.3,30.12,WSW,240,1.0,4.0,99,0.00,,SKC,0.00,VWS V14.01,2013-01-12 10:00:00,
2013-01-12 05:05:00,61.5,61.2,30.12,WSW,239,1.0,3.0,99,0.00,,SKC,0.00,VWS V14.01,2013-01-12 10:05:00,
2013-01-12 05:10:00,61.3,61.0,30.12,SSW,201,3.0,3.0,99,0.00,,SKC,0.00,VWS V14.01,2013-01-12 10:10:00,
2013-01-12 05:15:00,61.2,60.9,30.12,SSW,201,0.0,3.0,99,0.00,,SKC,0.00,VWS V14.01,2013-01-12 10:15:00,
2013-01-12 05:20:00,61.2,60.9,30.12,South,190,0.0,3.0,99,0.00,,SKC,0.00,VWS V14.01,2013-01-12 10:20:00,
2013-01-12 05:25:00,61.0,60.7,30.12,South,190,3.0,3.0,99,0.00,,SKC,0.00,VWS V14.01,2013-01-12 10:25:00,
2013-01-12 05:30:00,61.0,60.7,30.12,South,190,0.0,3.0,99,0.00,,SKC,0.00,VWS V14.01,2013-01-12 10:30:00,
2013-01-12 05:35:00,60.9,60.6,30.12,South,190,0.0,3.0,99,0.00,,SKC,0.00,VWS V14.01,2013-01-12 10:35:00,
2013-01-12 05:40:00,61.0,60.7,30.12,South,190,3.0,3.0,99,0.00,,SKC,0.00,VWS V14.01,2013-01-12 10:40:00,
2013-01-12 05:45:00,60.9,60.6,30.12,SSE,164,0.0,3.0,99,0.00,,SKC,0.00,VWS V14.01,2013-01-12 10:45:00,
2013-01-12 05:50:00,60.8,60.5,30.12,SSE,164,1.0,3.0,99,0.00,,SKC,0.00,VWS V14.01,2013-01-12 10:50:00,
2013-01-12 05:55:00,60.7,60.4,30.12,WSW,244,0.0,3.0,99,0.00,,SKC,0.00,VWS V14.01,2013-01-12 10:55:00,
2013-01-12 06:00:00,60.7,60.4,30.12,South,184,1.0,3.0,99,0.00,,SKC,0.00,VWS V14.01,2013-01-12 11:00:00,
2013-01-12 06:05:00,60.6,60.3,30.13,South,184,0.0,1.0,99,0.00,,SKC,0.00,VWS V14.01,2013-01-12 11:05:00,
2013-01-12 06:10:00,60.7,60.4,30.13,South,184,0.0,3.0,99,0.00,,SKC,0.00,VWS V14.01,2013-01-12 11:10:00,
2013-01-12 06:15:00,60.7,60.4,30.13,South,184,0.0,3.0,99,0.00,,SKC,0.00,VWS V14.01,2013-01-12 11:15:00,
2013-01-12 06:20:00,60.7,60.4,30.13,South,184,0.0,3.0,99,0.00,,SKC,0.00,VWS V14.01,2013-01-12 11:20:00,
2013-01-12 06:25:00,60.3,60.0,30.13,South,184,0.0,3.0,99,0.00,,SKC,0.00,VWS V14.01,2013-01-12 11:25:00,
2013-01-12 06:30:00,60.3,60.0,30.13,South,184,1.0,3.0,99,0.00,,SKC,0.00,VWS V14.01,2013-01-12 11:30:00,
2013-01-12 06:35:00,60.3,60.0,30.13,SSW,213,1.0,3.0,99,0.00,,SKC,0.00,VWS V14.01,2013-01-12 11:35:00,
2013-01-12 06:40:00,60.4,60.1,30.13,South,186,0.0,3.0,99,0.00,,SKC,0.00,VWS V14.01,2013-01-12 11:40:00,
2013-01-12 06:45:00,60.4,60.1,30.13,South,186,0.0,3.0,99,0.00,,SKC,0.00,VWS V14.01,2013-01-12 11:45:00,
2013-01-12 06:50:00,60.4,60.1,30.13,South,171,1.0,3.0,99,0.00,,SKC,0.00,VWS V14.01,2013-01-12 11:50:00,
2013-01-12 06:55:00,60.3,60.0,30.13,South,173,0.0,3.0,99,0.00,,SKC,0.00,VWS V14.01,2013-01-12 11:55:00,
2013-01-12 07:00:00,60.3,60.0,30.13,South,173,0.0,3.0,99,0.00,,SKC,0.00,VWS V14.01,2013-01-12 12:00:00,
2013-01-12 07:05:00,60.1,60.1,30.13,South,171,0.0,3.0,100,0.00,,SKC,0.00,VWS V14.01,2013-01-12 12:05:00,
2013-01-12 07:10:00,60.0,60.0,30.13,South,173,0.0,4.0,100,0.00,,SKC,0.00,VWS V14.01,2013-01-12 12:10:00,
2013-01-12 07:15:00,60.2,60.2,30.14,South,173,1.0,4.0,100,0.00,,SKC,0.00,VWS V14.01,2013-01-12 12:15:00,
2013-01-12 07:20:00,60.2,60.2,30.14,South,173,0.0,4.0,100,0.00,,SKC,0.00,VWS V14.01,2013-01-12 12:20:00,
2013-01-12 07:25:00,60.2,60.2,30.14,South,174,0.0,4.0,100,0.00,,SKC,0.00,VWS V14.01,2013-01-12 12:25:00,
2013-01-12 07:30:00,60.4,60.4,30.14,SSW,204,1.0,4.0,100,0.00,,SKC,0.00,VWS V14.01,2013-01-12 12:30:00,
2013-01-12 07:35:00,60.5,60.5,30.14,South,169,2.0,4.0,100,0.00,,SKC,0.00,VWS V14.01,2013-01-12 12:35:00,
2013-01-12 07:40:00,60.6,60.6,30.14,South,169,0.0,4.0,100,0.00,,SKC,0.00,VWS V14.01,2013-01-12 12:40:00,
2013-01-12 07:45:00,60.6,60.6,30.14,SSW,211,0.0,4.0,100,0.00,,SKC,0.00,VWS V14.01,2013-01-12 12:45:00,
2013-01-12 07:50:00,60.6,60.6,30.14,SSW,211,0.0,4.0,100,0.00,,SKC,0.00,VWS V14.01,2013-01-12 12:50:00,
2013-01-12 07:55:00,60.7,60.7,30.14,SSE,162,1.0,4.0,100,0.00,,SKC,0.00,VWS V14.01,2013-01-12 12:55:00,
2013-01-12 08:00:00,60.9,60.9,30.15,SW,236,1.0,4.0,100,0.00,,SKC,0.00,VWS V14.01,2013-01-12 13:00:00,
2013-01-12 08:05:00,61.1,61.1,30.15,SSE,153,0.0,3.0,100,0.00,,SKC,0.00,VWS V14.01,2013-01-12 13:05:00,
2013-01-12 08:10:00,61.2,61.2,30.15,SW,214,0.0,5.0,100,0.00,,SKC,0.00,VWS V14.01,2013-01-12 13:10:00,
2013-01-12 08:15:00,61.4,61.4,30.15,South,190,0.0,5.0,100,0.00,,SKC,0.00,VWS V14.01,2013-01-12 13:15:00,
2013-01-12 08:20:00,61.4,61.4,30.15,SSW,201,0.0,5.0,100,0.00,,SKC,0.00,VWS V14.01,2013-01-12 13:20:00,
2013-01-12 08:25:00,61.5,61.5,30.15,SSW,207,0.0,5.0,100,0.00,,SKC,0.00,VWS V14.01,2013-01-12 13:25:00,
2013-01-12 08:30:00,61.5,61.5,30.15,SSW,193,3.0,5.0,100,0.00,,SKC,0.00,VWS V14.01,2013-01-12 13:30:00,
2013-01-12 08:35:00,61.6,61.6,30.15,South,191,1.0,5.0,100,0.00,,SKC,0.00,VWS V14.01,2013-01-12 13:35:00,
2013-01-12 08:40:00,61.6,61.6,30.15,SSW,211,0.0,5.0,100,0.00,,SKC,0.00,VWS V14.01,2013-01-12 13:40:00,
2013-01-12 08:45:00,61.6,61.3,30.16,SSW,209,1.0,5.0,99,0.00,,SKC,0.00,VWS V14.01,2013-01-12 13:45:00,
2013-01-12 08:50:00,61.7,61.4,30.16,South,175,0.0,5.0,99,0.00,,SKC,0.00,VWS V14.01,2013-01-12 13:50:00,
2013-01-12 08:55:00,61.8,61.8,30.16,WSW,257,0.0,5.0,100,0.00,,SKC,0.00,VWS V14.01,2013-01-12 13:55:00,
2013-01-12 09:00:00,62.0,61.7,30.16,South,190,2.0,5.0,99,0.00,,SKC,0.00,VWS V14.01,2013-01-12 14:00:00,
2013-01-12 09:05:00,62.1,61.8,30.16,South,190,0.0,3.0,99,0.00,,SKC,0.00,VWS V14.01,2013-01-12 14:05:00,
2013-01-12 09:10:00,62.4,62.1,30.16,South,182,3.0,6.0,99,0.00,,SKC,0.00,VWS V14.01,2013-01-12 14:10:00,
2013-01-12 09:15:00,62.9,62.6,30.16,SSW,209,1.0,6.0,99,0.00,,SKC,0.00,VWS V14.01,2013-01-12 14:15:00,
2013-01-12 09:20:00,63.1,62.8,30.16,SW,229,0.0,6.0,99,0.00,,SKC,0.00,VWS V14.01,2013-01-12 14:20:00,
2013-01-12 09:25:00,63.3,63.0,30.16,South,171,1.0,6.0,99,0.00,,SKC,0.00,VWS V14.01,2013-01-12 14:25:00,
2013-01-12 09:30:00,63.5,62.9,30.16,SSW,209,3.0,6.0,98,0.00,,SKC,0.00,VWS V14.01,2013-01-12 14:30:00,
2013-01-12 09:35:00,63.8,63.2,30.16,SSW,193,2.0,6.0,98,0.00,,SKC,0.00,VWS V14.01,2013-01-12 14:35:00,
2013-01-12 09:40:00,63.9,63.3,30.16,SSW,198,1.0,6.0,98,0.00,,SKC,0.00,VWS V14.01,2013-01-12 14:40:00,
2013-01-12 09:45:00,64.0,63.1,30.16,SSW,194,0.0,6.0,97,0.00,,SKC,0.00,VWS V14.01,2013-01-12 14:45:00,
2013-01-12 09:50:00,64.2,63.3,30.16,SSW,194,1.0,6.0,97,0.00,,SKC,0.00,VWS V14.01,2013-01-12 14:50:00,
2013-01-12 09:55:00,64.8,63.9,30.16,SW,231,3.0,7.0,97,0.00,,SKC,0.00,VWS V14.01,2013-01-12 14:55:00,
2013-01-12 10:00:00,65.0,63.8,30.16,SW,221,3.0,7.0,96,0.00,,SKC,0.00,VWS V14.01,2013-01-12 15:00:00,
2013-01-12 10:05:00,65.3,63.8,30.16,South,180,2.0,7.0,95,0.00,,SKC,0.00,VWS V14.01,2013-01-12 15:05:00,
2013-01-12 10:10:00,65.4,63.6,30.16,South,187,4.0,10.0,94,0.00,,SKC,0.00,VWS V14.01,2013-01-12 15:10:00,
2013-01-12 10:15:00,65.4,63.3,30.16,SW,231,0.0,10.0,93,0.00,,SKC,0.00,VWS V14.01,2013-01-12 15:15:00,
2013-01-12 10:20:00,66.0,63.9,30.16,SW,215,6.0,10.0,93,0.00,,SKC,0.00,VWS V14.01,2013-01-12 15:20:00,
2013-01-12 10:25:00,66.7,64.6,30.16,SW,227,5.0,10.0,93,0.00,,SKC,0.00,VWS V14.01,2013-01-12 15:25:00,
2013-01-12 10:30:00,67.2,64.5,30.16,SW,232,2.0,10.0,91,0.00,,SKC,0.00,VWS V14.01,2013-01-12 15:30:00,
2013-01-12 10:35:00,67.7,64.7,30.16,SW,234,6.0,10.0,90,0.00,,SKC,0.00,VWS V14.01,2013-01-12 15:35:00,
2013-01-12 10:40:00,67.8,64.4,30.16,WSW,237,5.0,11.0,89,0.00,,SKC,0.00,VWS V14.01,2013-01-12 15:40:00,
2013-01-12 10:45:00,68.1,64.4,30.16,SW,215,4.0,11.0,88,0.00,,SKC,0.00,VWS V14.01,2013-01-12 15:45:00,
2013-01-12 10:50:00,68.4,64.7,30.16,West,263,5.0,11.0,88,0.00,,SKC,0.00,VWS V14.01,2013-01-12 15:50:00,
2013-01-12 10:55:00,68.8,64.8,30.16,WSW,247,3.0,11.0,87,0.00,,SKC,0.00,VWS V14.01,2013-01-12 15:55:00,
2013-01-12 11:00:00,69.1,64.7,30.16,SSW,211,6.0,11.0,86,0.00,,SKC,0.00,VWS V14.01,2013-01-12 16:00:00,
2013-01-12 11:05:00,69.4,64.7,30.15,SSW,212,10.0,11.0,85,0.00,,SKC,0.00,VWS V14.01,2013-01-12 16:05:00,
2013-01-12 11:10:00,69.7,65.0,30.15,West,267,0.0,11.0,85,0.00,,SKC,0.00,VWS V14.01,2013-01-12 16:10:00,
2013-01-12 11:15:00,70.2,65.1,30.15,SW,222,2.0,11.0,84,0.00,,SKC,0.00,VWS V14.01,2013-01-12 16:15:00,
2013-01-12 11:20:00,70.8,65.0,30.15,WSW,254,0.0,11.0,82,0.00,,SKC,0.00,VWS V14.01,2013-01-12 16:20:00,
2013-01-12 11:25:00,71.5,65.0,30.14,WSW,257,7.0,11.0,80,0.00,,SKC,0.00,VWS V14.01,2013-01-12 16:25:00,
2013-01-12 11:30:00,71.8,64.6,30.14,WSW,250,1.0,11.0,78,0.00,,SKC,0.00,VWS V14.01,2013-01-12 16:30:00,
2013-01-12 11:35:00,72.5,64.9,30.14,SW,221,5.0,11.0,77,0.00,,SKC,0.00,VWS V14.01,2013-01-12 16:35:00,
2013-01-12 11:40:00,73.0,64.2,30.14,West,263,10.0,12.0,74,0.00,,SKC,0.00,VWS V14.01,2013-01-12 16:40:00,
2013-01-12 11:45:00,73.6,64.0,30.13,SSW,209,2.0,15.0,72,0.00,,SKC,0.00,VWS V14.01,2013-01-12 16:45:00,
2013-01-12 11:50:00,74.1,64.1,30.13,WNW,285,9.0,15.0,71,0.00,,SKC,0.00,VWS V14.01,2013-01-12 16:50:00,
2013-01-12 11:55:00,74.5,64.1,30.12,West,262,5.0,15.0,70,0.00,,SKC,0.00,VWS V14.01,2013-01-12 16:55:00,
2013-01-12 12:00:00,74.5,63.7,30.12,WSW,240,6.0,15.0,69,0.00,,SKC,0.00,VWS V14.01,2013-01-12 17:00:00,
2013-01-12 12:05:00,74.6,63.3,30.12,WNW,289,6.0,13.0,68,0.00,,SKC,0.00,VWS V14.01,2013-01-12 17:05:00,
2013-01-12 12:10:00,74.9,63.6,30.12,WSW,257,4.0,13.0,68,0.00,,SKC,0.00,VWS V14.01,2013-01-12 17:10:00,
2013-01-12 12:15:00,75.3,63.2,30.11,WNW,284,7.0,13.0,66,0.00,,SKC,0.00,VWS V14.01,2013-01-12 17:15:00,
2013-01-12 12:20:00,75.3,63.6,30.11,WSW,246,4.0,13.0,67,0.00,,SKC,0.00,VWS V14.01,2013-01-12 17:20:00,
2013-01-12 12:25:00,75.3,63.2,30.11,SW,232,1.0,13.0,66,0.00,,SKC,0.00,VWS V14.01,2013-01-12 17:25:00,
2013-01-12 12:30:00,75.8,63.6,30.11,WSW,248,5.0,13.0,66,0.00,,SKC,0.00,VWS V14.01,2013-01-12 17:30:00,
2013-01-12 12:35:00,76.2,63.6,30.11,WSW,257,6.0,13.0,65,0.00,,SKC,0.00,VWS V14.01,2013-01-12 17:35:00,
2013-01-12 12:40:00,76.3,63.2,30.11,WSW,256,1.0,14.0,64,0.00,,SKC,0.00,VWS V14.01,2013-01-12 17:40:00,
2013-01-12 12:45:00,76.4,63.3,30.11,SW,227,7.0,14.0,64,0.00,,SKC,0.00,VWS V14.01,2013-01-12 17:45:00,
2013-01-12 12:50:00,76.3,63.2,30.10,SSE,150,8.0,14.0,64,0.00,,SKC,0.00,VWS V14.01,2013-01-12 17:50:00,
2013-01-12 12:55:00,76.1,63.0,30.10,SW,226,4.0,14.0,64,0.00,,SKC,0.00,VWS V14.01,2013-01-12 17:55:00,
2013-01-12 13:00:00,76.2,63.1,30.10,SSW,206,6.0,14.0,64,0.00,,SKC,0.00,VWS V14.01,2013-01-12 18:00:00,
2013-01-12 13:05:00,75.9,63.3,30.10,WSW,252,6.0,10.0,65,0.00,,SKC,0.00,VWS V14.01,2013-01-12 18:05:00,
2013-01-12 13:10:00,76.0,63.0,30.10,SSW,207,6.0,14.0,64,0.00,,SKC,0.00,VWS V14.01,2013-01-12 18:10:00,
2013-01-12 13:15:00,76.2,63.1,30.10,WSW,248,3.0,14.0,64,0.00,,SKC,0.00,VWS V14.01,2013-01-12 18:15:00,
2013-01-12 13:20:00,76.3,63.2,30.09,SW,221,7.0,14.0,64,0.00,,SKC,0.00,VWS V14.01,2013-01-12 18:20:00,
2013-01-12 13:25:00,76.2,63.1,30.10,NW,306,0.0,14.0,64,0.00,,SKC,0.00,VWS V14.01,2013-01-12 18:25:00,
2013-01-12 13:30:00,76.5,63.4,30.09,West,266,2.0,14.0,64,0.00,,SKC,0.00,VWS V14.01,2013-01-12 18:30:00,
2013-01-12 13:35:00,76.7,63.2,30.09,SW,236,1.0,14.0,63,0.00,,SKC,0.00,VWS V14.01,2013-01-12 18:35:00,
2013-01-12 13:40:00,76.8,62.8,30.09,SW,219,3.0,14.0,62,0.00,,SKC,0.00,VWS V14.01,2013-01-12 18:40:00,
2013-01-12 13:45:00,76.7,63.2,30.09,SW,232,0.0,14.0,63,0.00,,SKC,0.00,VWS V14.01,2013-01-12 18:45:00,
2013-01-12 13:50:00,76.8,63.3,30.09,West,259,3.0,14.0,63,0.00,,SKC,0.00,VWS V14.01,2013-01-12 18:50:00,
2013-01-12 13:55:00,77.3,63.3,30.09,WSW,245,0.0,14.0,62,0.00,,SKC,0.00,VWS V14.01,2013-01-12 18:55:00,
2013-01-12 14:00:00,77.5,63.5,30.09,WSW,245,5.0,14.0,62,0.00,,SKC,0.00,VWS V14.01,2013-01-12 19:00:00,
2013-01-12 14:05:00,77.4,63.4,30.09,WSW,254,2.0,8.0,62,0.00,,SKC,0.00,VWS V14.01,2013-01-12 19:05:00,
2013-01-12 14:10:00,77.6,63.1,30.09,SW,220,3.0,9.0,61,0.00,,SKC,0.00,VWS V14.01,2013-01-12 19:10:00,
2013-01-12 14:15:00,77.5,63.0,30.09,SW,234,2.0,11.0,61,0.00,,SKC,0.00,VWS V14.01,2013-01-12 19:15:00,
2013-01-12 14:20:00,77.4,63.4,30.09,South,184,3.0,11.0,62,0.00,,SKC,0.00,VWS V14.01,2013-01-12 19:20:00,
2013-01-12 14:25:00,77.7,63.7,30.09,SW,229,2.0,11.0,62,0.00,,SKC,0.00,VWS V14.01,2013-01-12 19:25:00,
2013-01-12 14:30:00,78.2,63.2,30.09,SSW,193,3.0,11.0,60,0.00,,SKC,0.00,VWS V14.01,2013-01-12 19:30:00,
2013-01-12 14:35:00,78.7,63.7,30.08,SSW,198,3.0,11.0,60,0.00,,SKC,0.00,VWS V14.01,2013-01-12 19:35:00,
2013-01-12 14:40:00,78.6,63.6,30.08,South,190,5.0,11.0,60,0.00,,SKC,0.00,VWS V14.01,2013-01-12 19:40:00,
2013-01-12 14:45:00,78.1,63.1,30.09,SSW,198,0.0,11.0,60,0.00,,SKC,0.00,VWS V14.01,2013-01-12 19:45:00,
2013-01-12 14:50:00,78.1,63.1,30.09,SW,215,2.0,11.0,60,0.00,,SKC,0.00,VWS V14.01,2013-01-12 19:50:00,
2013-01-12 14:55:00,78.2,62.7,30.08,SW,225,4.0,11.0,59,0.00,,SKC,0.00,VWS V14.01,2013-01-12 19:55:00,
2013-01-12 15:00:00,78.2,62.7,30.09,WSW,243,4.0,11.0,59,0.00,,SKC,0.00,VWS V14.01,2013-01-12 20:00:00,
2013-01-12 15:05:00,78.4,62.4,30.09,SSE,167,6.0,8.0,58,0.00,,SKC,0.00,VWS V14.01,2013-01-12 20:05:00,
2013-01-12 15:10:00,77.9,62.4,30.08,SSE,158,5.0,10.0,59,0.00,,SKC,0.00,VWS V14.01,2013-01-12 20:10:00,
2013-01-12 15:15:00,77.4,62.4,30.09,South,185,3.0,10.0,60,0.00,,SKC,0.00,VWS V14.01,2013-01-12 20:15:00,
2013-01-12 15:20:00,77.1,62.6,30.08,South,182,0.0,10.0,61,0.00,,SKC,0.00,VWS V14.01,2013-01-12 20:20:00,
2013-01-12 15:25:00,77.3,62.8,30.08,South,183,0.0,10.0,61,0.00,,SKC,0.00,VWS V14.01,2013-01-12 20:25:00,
2013-01-12 15:30:00,77.4,62.9,30.08,South,184,1.0,10.0,61,0.00,,SKC,0.00,VWS V14.01,2013-01-12 20:30:00,
2013-01-12 15:35:00,77.2,62.2,30.08,South,180,1.0,10.0,60,0.00,,SKC,0.00,VWS V14.01,2013-01-12 20:35:00,
2013-01-12 15:40:00,77.2,62.2,30.08,SSW,200,2.0,10.0,60,0.00,,SKC,0.00,VWS V14.01,2013-01-12 20:40:00,
2013-01-12 15:45:00,77.2,62.2,30.08,SSW,199,5.0,10.0,60,0.00,,SKC,0.00,VWS V14.01,2013-01-12 20:45:00,
2013-01-12 15:50:00,77.4,62.4,30.08,SW,233,4.0,10.0,60,0.00,,SKC,0.00,VWS V14.01,2013-01-12 20:50:00,
2013-01-12 15:55:00,77.7,62.2,30.08,SSW,200,1.0,10.0,59,0.00,,SKC,0.00,VWS V14.01,2013-01-12 20:55:00,
2013-01-12 16:00:00,77.8,62.8,30.08,SSE,150,3.0,10.0,60,0.00,,SKC,0.00,VWS V14.01,2013-01-12 21:00:00,
2013-01-12 16:05:00,77.5,62.1,30.08,SE,144,1.0,4.0,59,0.00,,SKC,0.00,VWS V14.01,2013-01-12 21:05:00,
2013-01-12 16:10:00,77.4,62.4,30.08,SE,146,3.0,10.0,60,0.00,,SKC,0.00,VWS V14.01,2013-01-12 21:10:00,
2013-01-12 16:15:00,77.5,63.0,30.08,SSW,192,3.0,10.0,61,0.00,,SKC,0.00,VWS V14.01,2013-01-12 21:15:00,
2013-01-12 16:20:00,77.8,62.8,30.08,South,175,3.0,10.0,60,0.00,,SKC,0.00,VWS V14.01,2013-01-12 21:20:00,
2013-01-12 16:25:00,77.7,62.2,30.08,SW,225,3.0,10.0,59,0.00,,SKC,0.00,VWS V14.01,2013-01-12 21:25:00,
2013-01-12 16:30:00,77.3,62.3,30.08,South,181,0.0,10.0,60,0.00,,SKC,0.00,VWS V14.01,2013-01-12 21:30:00,
2013-01-12 16:35:00,77.1,62.2,30.08,SW,228,1.0,10.0,60,0.00,,SKC,0.00,VWS V14.01,2013-01-12 21:35:00,
2013-01-12 16:40:00,76.9,62.0,30.08,SW,217,4.0,10.0,60,0.00,,SKC,0.00,VWS V14.01,2013-01-12 21:40:00,
2013-01-12 16:45:00,76.7,61.8,30.08,SSW,203,0.0,10.0,60,0.00,,SKC,0.00,VWS V14.01,2013-01-12 21:45:00,
2013-01-12 16:50:00,76.5,62.1,30.08,SSW,195,0.0,10.0,61,0.00,,SKC,0.00,VWS V14.01,2013-01-12 21:50:00,
2013-01-12 16:55:00,76.1,62.2,30.08,South,186,2.0,10.0,62,0.00,,SKC,0.00,VWS V14.01,2013-01-12 21:55:00,
2013-01-12 17:00:00,75.8,62.3,30.08,SSW,205,3.0,10.0,63,0.00,,SKC,0.00,VWS V14.01,2013-01-12 22:00:00,
2013-01-12 17:05:00,75.5,62.0,30.08,South,175,1.0,6.0,63,0.00,,SKC,0.00,VWS V14.01,2013-01-12 22:05:00,
2013-01-12 17:10:00,75.3,62.3,30.08,SW,227,1.0,6.0,64,0.00,,SKC,0.00,VWS V14.01,2013-01-12 22:10:00,
2013-01-12 17:15:00,75.1,62.1,30.08,South,173,0.0,6.0,64,0.00,,SKC,0.00,VWS V14.01,2013-01-12 22:15:00,
2013-01-12 17:20:00,74.8,62.3,30.08,SSE,167,0.0,6.0,65,0.00,,SKC,0.00,VWS V14.01,2013-01-12 22:20:00,
2013-01-12 17:25:00,74.5,62.0,30.08,South,188,0.0,6.0,65,0.00,,SKC,0.00,VWS V14.01,2013-01-12 22:25:00,
2013-01-12 17:30:00,74.1,62.0,30.08,SE,138,0.0,6.0,66,0.00,,SKC,0.00,VWS V14.01,2013-01-12 22:30:00,
2013-01-12 17:35:00,73.8,62.2,30.08,South,169,0.0,6.0,67,0.00,,SKC,0.00,VWS V14.01,2013-01-12 22:35:00,
2013-01-12 17:40:00,73.5,62.3,30.08,South,169,0.0,6.0,68,0.00,,SKC,0.00,VWS V14.01,2013-01-12 22:40:00,
2013-01-12 17:45:00,73.1,61.9,30.08,South,169,0.0,6.0,68,0.00,,SKC,0.00,VWS V14.01,2013-01-12 22:45:00,
2013-01-12 17:50:00,72.8,62.0,30.08,South,169,1.0,6.0,69,0.00,,SKC,0.00,VWS V14.01,2013-01-12 22:50:00,
2013-01-12 17:55:00,72.5,61.8,30.08,South,169,0.0,6.0,69,0.00,,SKC,0.00,VWS V14.01,2013-01-12 22:55:00,
2013-01-12 18:00:00,72.2,61.9,30.08,South,169,1.0,6.0,70,0.00,,SKC,0.00,VWS V14.01,2013-01-12 23:00:00,
2013-01-12 18:05:00,72.1,61.8,30.08,SE,144,1.0,3.0,70,0.00,,SKC,0.00,VWS V14.01,2013-01-12 23:05:00,
2013-01-12 18:10:00,72.0,61.7,30.08,SSE,148,1.0,3.0,70,0.00,,SKC,0.00,VWS V14.01,2013-01-12 23:10:00,
2013-01-12 18:14:00,71.9,62.0,30.08,South,188,0.0,4.0,71,0.00,,SKC,0.00,VWS V14.01,2013-01-12 23:14:00,
2013-01-12 18:20:00,71.7,61.8,30.08,ESE,115,0.0,4.0,71,0.00,,SKC,0.00,VWS V14.01,2013-01-12 23:20:00,
2013-01-12 18:25:00,71.4,61.9,30.08,ESE,115,0.0,4.0,72,0.00,,SKC,0.00,VWS V14.01,2013-01-12 23:25:00,
2013-01-12 18:29:00,71.2,61.7,30.08,ESE,115,0.0,4.0,72,0.00,,SKC,0.00,VWS V14.01,2013-01-12 23:29:00,
2013-01-12 18:34:00,71.0,61.9,30.08,SE,143,0.0,4.0,73,0.00,,SKC,0.00,VWS V14.01,2013-01-12 23:34:00,
2013-01-12 18:39:00,70.7,61.6,30.08,SE,143,0.0,4.0,73,0.00,,SKC,0.00,VWS V14.01,2013-01-12 23:39:00,
2013-01-12 18:44:00,70.5,61.8,30.08,SE,143,0.0,4.0,74,0.00,,SKC,0.00,VWS V14.01,2013-01-12 23:44:00,
2013-01-12 18:49:00,70.2,61.5,30.08,SE,143,0.0,4.0,74,0.00,,SKC,0.00,VWS V14.01,2013-01-12 23:49:00,
2013-01-12 18:54:00,70.0,61.7,30.08,SE,143,0.0,4.0,75,0.00,,SKC,0.00,VWS V14.01,2013-01-12 23:54:00,
2013-01-12 18:59:00,69.7,61.4,30.08,SE,143,0.0,4.0,75,0.00,,SKC,0.00,VWS V14.01,2013-01-12 23:59:00,
2013-01-12 19:00:00,68.1,61.0,30.07,SSE,150,0.0,3.0,78,0.00,,SKC,0.00,VWS V14.01,2013-01-13 00:00:00,
2013-01-12 19:04:00,69.4,61.5,30.08,SE,143,0.0,0.0,76,0.00,,SKC,0.00,VWS V14.01,2013-01-13 00:04:00,
2013-01-12 19:09:00,69.2,61.3,30.08,SE,143,0.0,1.0,76,0.00,,SKC,0.00,VWS V14.01,2013-01-13 00:09:00,
2013-01-12 19:14:00,68.9,61.4,30.08,SE,143,0.0,1.0,77,0.00,,SKC,0.00,VWS V14.01,2013-01-13 00:14:00,
2013-01-12 19:19:00,68.6,61.1,30.08,SE,143,0.0,1.0,77,0.00,,SKC,0.00,VWS V14.01,2013-01-13 00:19:00,
2013-01-12 19:24:00,68.5,61.4,30.08,SE,143,0.0,1.0,78,0.00,,SKC,0.00,VWS V14.01,2013-01-13 00:24:00,
2013-01-12 19:29:00,68.0,60.9,30.08,SE,143,0.0,1.0,78,0.00,,SKC,0.00,VWS V14.01,2013-01-13 00:29:00,
2013-01-12 19:34:00,67.6,60.9,30.07,SE,143,0.0,2.0,79,0.00,,SKC,0.00,VWS V14.01,2013-01-13 00:34:00,
2013-01-12 19:39:00,67.7,61.0,30.07,SE,143,0.0,2.0,79,0.00,,SKC,0.00,VWS V14.01,2013-01-13 00:39:00,
2013-01-12 19:44:00,67.7,61.0,30.07,SE,143,0.0,2.0,79,0.00,,SKC,0.00,VWS V14.01,2013-01-13 00:44:00,
2013-01-12 19:49:00,67.8,61.1,30.08,SE,144,0.0,2.0,79,0.00,,SKC,0.00,VWS V14.01,2013-01-13 00:49:00,
2013-01-12 19:54:00,67.9,61.2,30.07,SSE,155,2.0,3.0,79,0.00,,SKC,0.00,VWS V14.01,2013-01-13 00:54:00,
2013-01-12 19:59:00,68.1,61.0,30.07,SSE,149,0.0,3.0,78,0.00,,SKC,0.00,VWS V14.01,2013-01-13 00:59:00,
2013-01-12 20:00:00,66.5,60.8,30.08,South,183,0.0,4.0,82,0.00,,SKC,0.00,VWS V14.01,2013-01-13 01:00:00,
2013-01-12 20:04:00,68.2,61.1,30.07,South,183,0.0,4.0,78,0.00,,SKC,0.00,VWS V14.01,2013-01-13 01:04:00,
2013-01-12 20:09:00,68.0,60.9,30.08,South,183,0.0,4.0,78,0.00,,SKC,0.00,VWS V14.01,2013-01-13 01:09:00,
2013-01-12 20:14:00,67.6,60.9,30.08,South,183,0.0,4.0,79,0.00,,SKC,0.00,VWS V14.01,2013-01-13 01:14:00,
2013-01-12 20:19:00,67.3,60.9,30.08,South,183,0.0,4.0,80,0.00,,SKC,0.00,VWS V14.01,2013-01-13 01:19:00,
2013-01-12 20:24:00,67.1,60.7,30.08,South,183,0.0,4.0,80,0.00,,SKC,0.00,VWS V14.01,2013-01-13 01:24:00,
2013-01-12 20:29:00,67.1,60.7,30.08,South,183,0.0,4.0,80,0.00,,SKC,0.00,VWS V14.01,2013-01-13 01:29:00,
2013-01-12 20:34:00,67.2,60.8,30.08,South,183,0.0,4.0,80,0.00,,SKC,0.00,VWS V14.01,2013-01-13 01:34:00,
2013-01-12 20:39:00,67.2,60.8,30.08,South,183,0.0,4.0,80,0.00,,SKC,0.00,VWS V14.01,2013-01-13 01:39:00,
2013-01-12 20:44:00,67.0,60.6,30.08,South,183,0.0,4.0,80,0.00,,SKC,0.00,VWS V14.01,2013-01-13 01:44:00,
2013-01-12 20:49:00,66.6,60.6,30.08,South,183,0.0,4.0,81,0.00,,SKC,0.00,VWS V14.01,2013-01-13 01:49:00,
2013-01-12 20:54:00,66.5,60.5,30.08,South,183,0.0,4.0,81,0.00,,SKC,0.00,VWS V14.01,2013-01-13 01:54:00,
2013-01-12 20:59:00,66.4,60.7,30.08,South,183,0.0,4.0,82,0.00,,SKC,0.00,VWS V14.01,2013-01-13 01:59:00,
2013-01-12 21:00:00,65.1,60.2,30.08,South,183,0.0,2.0,84,0.00,,SKC,0.00,VWS V14.01,2013-01-13 02:00:00,
2013-01-12 21:04:00,66.5,60.8,30.08,South,183,0.0,0.0,82,0.00,,SKC,0.00,VWS V14.01,2013-01-13 02:04:00,
2013-01-12 21:09:00,66.4,60.7,30.08,South,183,0.0,0.0,82,0.00,,SKC,0.00,VWS V14.01,2013-01-13 02:09:00,
2013-01-12 21:14:00,66.2,60.5,30.08,South,183,0.0,0.0,82,0.00,,SKC,0.00,VWS V14.01,2013-01-13 02:14:00,
2013-01-12 21:19:00,65.9,60.3,30.08,South,183,0.0,0.0,82,0.00,,SKC,0.00,VWS V14.01,2013-01-13 02:19:00,
2013-01-12 21:24:00,65.7,60.4,30.08,South,183,0.0,1.0,83,0.00,,SKC,0.00,VWS V14.01,2013-01-13 02:24:00,
2013-01-12 21:29:00,65.5,60.2,30.08,South,183,0.0,1.0,83,0.00,,SKC,0.00,VWS V14.01,2013-01-13 02:29:00,
2013-01-12 21:34:00,65.3,60.3,30.08,South,183,0.0,2.0,84,0.00,,SKC,0.00,VWS V14.01,2013-01-13 02:34:00,
2013-01-12 21:39:00,65.3,60.3,30.08,South,183,0.0,2.0,84,0.00,,SKC,0.00,VWS V14.01,2013-01-13 02:39:00,
2013-01-12 21:44:00,65.3,60.3,30.08,South,183,0.0,2.0,84,0.00,,SKC,0.00,VWS V14.01,2013-01-13 02:44:00,
2013-01-12 21:49:00,65.2,60.2,30.08,South,183,0.0,2.0,84,0.00,,SKC,0.00,VWS V14.01,2013-01-13 02:49:00,
2013-01-12 21:54:00,65.2,60.2,30.08,South,183,0.0,2.0,84,0.00,,SKC,0.00,VWS V14.01,2013-01-13 02:54:00,
2013-01-12 21:59:00,65.1,60.2,30.08,South,183,0.0,2.0,84,0.00,,SKC,0.00,VWS V14.01,2013-01-13 02:59:00,
2013-01-12 22:00:00,63.4,59.8,30.08,South,183,0.0,0.0,88,0.00,,SKC,0.00,VWS V14.01,2013-01-13 03:00:00,
2013-01-12 22:04:00,64.9,60.3,30.08,South,183,0.0,0.0,85,0.00,,SKC,0.00,VWS V14.01,2013-01-13 03:04:00,
2013-01-12 22:09:00,64.7,60.1,30.08,South,183,0.0,0.0,85,0.00,,SKC,0.00,VWS V14.01,2013-01-13 03:09:00,
2013-01-12 22:14:00,64.7,60.4,30.08,South,183,0.0,0.0,86,0.00,,SKC,0.00,VWS V14.01,2013-01-13 03:14:00,
2013-01-12 22:19:00,64.7,60.1,30.08,South,183,0.0,0.0,85,0.00,,SKC,0.00,VWS V14.01,2013-01-13 03:19:00,
2013-01-12 22:24:00,64.5,60.2,30.08,South,183,0.0,0.0,86,0.00,,SKC,0.00,VWS V14.01,2013-01-13 03:24:00,
2013-01-12 22:29:00,64.4,60.1,30.08,South,183,0.0,0.0,86,0.00,,SKC,0.00,VWS V14.01,2013-01-13 03:29:00,
2013-01-12 22:34:00,64.4,60.1,30.08,South,183,0.0,0.0,86,0.00,,SKC,0.00,VWS V14.01,2013-01-13 03:34:00,
2013-01-12 22:39:00,64.3,60.0,30.08,South,183,0.0,0.0,86,0.00,,SKC,0.00,VWS V14.01,2013-01-13 03:39:00,
2013-01-12 22:44:00,64.3,60.0,30.08,South,183,0.0,0.0,86,0.00,,SKC,0.00,VWS V14.01,2013-01-13 03:44:00,
2013-01-12 22:49:00,64.0,59.7,30.08,South,183,0.0,0.0,86,0.00,,SKC,0.00,VWS V14.01,2013-01-13 03:49:00,
2013-01-12 22:54:00,63.6,59.7,30.08,South,183,0.0,0.0,87,0.00,,SKC,0.00,VWS V14.01,2013-01-13 03:54:00,
2013-01-12 22:59:00,63.4,59.8,30.08,South,183,0.0,0.0,88,0.00,,SKC,0.00,VWS V14.01,2013-01-13 03:59:00,
2013-01-12 23:00:00,62.6,59.6,30.08,SE,142,0.0,4.0,90,0.00,,SKC,0.00,VWS V14.01,2013-01-13 04:00:00,
2013-01-12 23:04:00,63.4,59.8,30.08,South,183,0.0,0.0,88,0.00,,SKC,0.00,VWS V14.01,2013-01-13 04:04:00,
2013-01-12 23:09:00,63.3,60.0,30.08,South,183,0.0,0.0,89,0.00,,SKC,0.00,VWS V14.01,2013-01-13 04:09:00,
2013-01-12 23:14:00,63.1,59.8,30.08,South,183,0.0,0.0,89,0.00,,SKC,0.00,VWS V14.01,2013-01-13 04:14:00,
2013-01-12 23:19:00,63.1,59.8,30.08,South,183,0.0,0.0,89,0.00,,SKC,0.00,VWS V14.01,2013-01-13 04:19:00,
2013-01-12 23:24:00,63.0,59.7,30.08,South,183,0.0,0.0,89,0.00,,SKC,0.00,VWS V14.01,2013-01-13 04:24:00,
2013-01-12 23:29:00,63.0,59.7,30.08,South,183,0.0,0.0,89,0.00,,SKC,0.00,VWS V14.01,2013-01-13 04:29:00,
2013-01-12 23:34:00,62.7,59.4,30.08,South,183,0.0,1.0,89,0.00,,SKC,0.00,VWS V14.01,2013-01-13 04:34:00,
2013-01-12 23:39:00,62.4,59.1,30.08,South,183,1.0,1.0,89,0.00,,SKC,0.00,VWS V14.01,2013-01-13 04:39:00,
2013-01-12 23:44:00,62.6,59.6,30.08,SSE,150,3.0,4.0,90,0.00,,SKC,0.00,VWS V14.01,2013-01-13 04:44:00,
2013-01-12 23:49:00,62.9,59.9,30.08,SE,142,0.0,4.0,90,0.00,,SKC,0.00,VWS V14.01,2013-01-13 04:49:00,
2013-01-12 23:54:00,62.7,59.7,30.08,SE,142,0.0,4.0,90,0.00,,SKC,0.00,VWS V14.01,2013-01-13 04:54:00,
2013-01-12 23:59:00,62.6,59.6,30.08,SE,142,0.0,4.0,90,0.00,,SKC,0.00,VWS V14.01,2013-01-13 04:59:00,